KTXEAGLE7 Weather Reports


time (UTC)temp
F
wind
direction
speed
knots
gust
knots
rain 1hr
in
rain 24hr
in
rain mn
in
humidity
%
barometer
mb
20260906143017 85 135 1.7 5.2 0.00 0.00 0.00 86 1014.7
20260906141514 84 81 0.0 3.5 0.00 0.00 0.00 88 1014.6
20260906140012 83 36 0.0 2.6 0.00 0.00 0.00 94 1014.6
20260906134506 81 146 0.9 3.5 0.00 0.00 0.00 97 1014.5
20260906133004 80 110 1.7 3.5 0.00 0.00 0.00 99 1014.4
20260906131506 79 112 1.7 3.5 0.00 0.00 0.00 99 1014.3
20260906130005 78 121 1.7 3.5 0.00 0.00 0.00 100 1014.3
20260906124603 78 123 0.9 1.7 0.00 0.00 0.00 100 1014.1
20260906123158 77 123 0.0 1.7 0.00 0.00 0.00 100 1014.0
20260906113047 77 99 1.7 3.5 0.00 0.00 0.00 99 1012.8
20260906111542 77 81 1.7 4.3 0.00 0.00 0.00 99 1012.8
20260906110041 77 100 1.7 3.5 0.00 0.00 0.00 99 1012.6
20260906104540 78 95 0.0 1.7 0.00 0.00 0.00 99 1012.6
20260906103040 78 95 0.0 1.7 0.00 0.00 0.00 99 1012.6
20260906101540 78 95 1.7 2.6 0.00 0.00 0.00 98 1012.5
20260906100038 78 204 0.0 0.0 0.00 0.00 0.00 98 1012.5
20260906094537 78 204 0.0 0.0 0.00 0.00 0.00 98 1012.4
20260906093037 78 204 0.0 0.0 0.00 0.00 0.00 98 1012.3
20260906091534 79 204 0.0 0.0 0.00 0.00 0.00 97 1012.4
20260906090033 79 204 0.0 0.0 0.00 0.00 0.00 97 1012.4
20260906084532 79 204 0.0 0.0 0.00 0.00 0.00 97 1012.3
20260906083039 79 204 0.0 0.0 0.00 0.00 0.00 97 1012.2
20260906081535 79 204 0.0 0.9 0.00 0.00 0.00 97 1012.3
20260906080029 79 204 0.0 1.7 0.00 0.00 0.00 96 1012.5
20260906074527 79 204 0.9 2.6 0.00 0.00 0.00 96 1012.5
20260906073025 79 204 1.7 3.5 0.00 0.00 0.00 95 1012.6
20260906071523 80 203 1.7 3.5 0.00 0.00 0.00 95 1012.8
20260906070022 80 231 1.7 4.3 0.00 0.00 0.00 96 1012.9
20260906064528 80 231 1.7 3.5 0.00 0.00 0.00 96 1013.2
20260906063022 80 231 1.7 2.6 0.00 0.00 0.00 96 1013.3
20260906061519 79 222 1.7 4.3 0.00 0.00 0.00 96 1013.2
20260906060019 80 218 2.6 3.5 0.00 0.00 0.00 96 1013.2
20260906054517 79 182 1.7 3.5 0.00 0.00 0.00 96 1013.1
20260906053015 80 182 2.6 3.5 0.00 0.00 0.00 95 1012.9
20260906051512 80 190 2.6 5.2 0.00 0.00 0.00 95 1013.0
20260906050135 80 191 1.7 3.5 0.00 0.00 0.00 95 1013.2
20260906044510 80 177 0.9 3.5 0.00 0.00 0.00 95 1013.3
20260906043011 80 142 0.0 0.0 0.00 0.00 0.00 94 1013.4
20260906041510 80 142 0.0 0.0 0.00 0.00 0.00 94 1013.6
20260906040009 80 142 0.0 0.0 0.00 0.00 0.00 94 1013.4
20260906034508 80 142 0.0 0.0 0.00 0.00 0.00 93 1013.3
20260906033008 80 142 0.0 0.0 0.00 0.00 0.00 92 1013.2
20260906031506 80 142 0.0 0.0 0.00 0.00 0.00 91 1013.3
20260906030006 81 142 0.0 3.5 0.00 0.00 0.00 90 1013.2
20260906024507 81 142 2.6 4.3 0.00 0.00 0.00 88 1012.8
20260906023008 82 153 2.6 4.3 0.00 0.00 0.00 87 1012.6
20260906021504 82 123 1.7 3.5 0.00 0.00 0.00 86 1012.3
20260906020004 82 108 1.7 2.6 0.00 0.00 0.00 85 1012.0
20260906014508 83 114 2.6 6.1 0.00 0.00 0.00 84 1011.9
20260906013008 83 97 1.7 3.5 0.00 0.00 0.00 84 1011.5
20260906011503 84 121 1.7 5.2 0.00 0.00 0.00 83 1011.5
20260906010002 84 116 2.6 6.1 0.00 0.00 0.00 80 1011.4
20260906004502 85 129 2.6 7.8 0.00 0.00 0.00 78 1011.5
20260906003004 86 131 5.2 7.8 0.00 0.00 0.00 77 1011.5
20260906001500 87 101 4.3 8.7 0.00 0.00 0.00 75 1011.8
20260906000101 87 132 3.5 8.7 0.00 0.00 0.00 74 1011.8
20260905234614 88 123 6.1 8.7 0.00 0.00 0.00 73 1011.6
20260905233100 88 142 6.1 9.6 0.00 0.00 0.00 73 1011.7
20260905231559 89 121 7.8 11.3 0.00 0.00 0.00 71 1011.7
20260905230058 90 134 7.0 13.0 0.00 0.00 0.00 67 1011.4
20260905224602 91 129 9.6 13.9 0.00 0.00 0.00 65 1011.3
20260905223057 90 131 6.1 11.3 0.00 0.00 0.00 70 1011.3
20260905221556 90 134 7.0 10.4 0.00 0.00 0.00 70 1011.3
20260905220055 90 122 7.0 11.3 0.00 0.00 0.00 68 1011.3
20260905214604 92 150 7.0 13.9 0.00 0.00 0.00 63 1011.3
20260905213053 92 128 8.7 13.9 0.00 0.00 0.00 62 1011.4
20260905211551 93 151 11.3 15.6 0.00 0.00 0.00 61 1011.4
20260905210050 94 113 6.1 11.3 0.00 0.00 0.00 58 1011.4
20260905204549 94 146 5.2 12.2 0.00 0.00 0.00 57 1011.4
20260905203046 94 134 4.3 7.8 0.00 0.00 0.00 56 1011.7
20260905201542 92 52 0.9 7.8 0.00 0.00 0.00 61 1011.9
20260905200045 94 161 2.6 6.1 0.00 0.00 0.00 60 1012.3
20260905194536 93 324 0.9 7.8 0.00 0.00 0.00 59 1012.5
20260905193033 92 132 3.5 7.8 0.00 0.00 0.00 60 1013.0
20260905191532 92 178 3.5 8.7 0.00 0.00 0.00 62 1013.1
20260905190030 92 275 3.5 7.0 0.00 0.00 0.00 63 1013.2
20260905184535 91 300 1.7 7.8 0.00 0.00 0.00 64 1013.2
20260905183028 91 115 3.5 7.8 0.00 0.00 0.00 66 1013.4
20260905181523 91 181 3.5 7.8 0.00 0.00 0.00 67 1013.7
20260905180022 90 215 3.5 9.6 0.00 0.00 0.00 70 1014.1
20260905174531 90 171 3.5 7.8 0.00 0.00 0.00 72 1014.3
20260905173025 89 155 2.6 7.8 0.00 0.00 0.00 71 1014.4
20260905171520 91 134 1.7 8.7 0.00 0.00 0.00 66 1014.6
20260905170017 90 117 2.6 8.7 0.00 0.00 0.00 68 1014.7
20260905164514 89 167 2.6 7.8 0.00 0.00 0.00 71 1014.9
20260905163011 88 193 0.9 5.2 0.00 0.00 0.00 75 1014.9
20260905161509 88 114 1.7 6.1 0.00 0.00 0.00 76 1014.9
20260905160013 88 204 2.6 7.8 0.00 0.00 0.00 78 1015.0
20260905154505 86 209 2.6 6.1 0.00 0.00 0.00 83 1014.9
20260905153008 86 265 2.6 6.1 0.00 0.00 0.00 84 1014.8
20260905151502 85 170 3.5 6.1 0.00 0.00 0.00 86 1014.9
20260905150101 85 182 0.9 5.2 0.00 0.00 0.00 88 1015.0
20260905144557 85 140 2.6 4.3 0.00 0.00 0.00 89 1015.0